Location: *
(43.0167°S, 179.9000°E)
Time: 20:39:03
(UTC+00:00)

USA 281 - Pass Details

Date: 12 August 2024
Orbit: 1078 x 1081 km, 106.0° (Epoch: 16 September)

Event Time Altitude Azimuth Distance (km) Brightness Sun altitude
Rises 15:43:13 0° 161° (SSE) 3,913 6.5 -35.7°
Reaches altitude 10° 15:45:48 10° 165° (SSE) 2,951 5.8 -35.3°
Enters shadow 15:49:11 31° 180° (S) 1,828 4.4 -34.7°
